2015-12-04 00:00:54 r, 18.88m,0000000002Hz,0000193735c,0000000.420s, 011.2C,00002191
2015-12-04 00:10:54 r, 19.08m,0000000002Hz,0000233352c,0000000.506s, 011.2C,00002191
2015-12-04 00:20:54 r, 19.63m,0000000001Hz,0000387053c,0000000.840s, 010.9C,00002191
2015-12-04 00:30:54 r, 19.79m,0000000001Hz,0000448374c,0000000.973s, 010.9C,00002191
2015-12-04 00:40:54 r, 19.52m,0000000001Hz,0000351519c,0000000.763s, 010.9C,00002191
2015-12-04 00:50:54 r, 19.52m,0000000001Hz,0000351280c,0000000.762s, 010.6C,00002191
2015-12-04 01:00:54 r, 19.63m,0000000001Hz,0000385949c,0000000.838s, 010.6C,00002191
2015-12-04 01:10:54 r, 19.75m,0000000001Hz,0000431098c,0000000.936s, 010.3C,00002191
2015-12-04 01:20:54 r, 19.76m,0000000001Hz,0000436055c,0000000.946s, 010.3C,00002191
2015-12-04 01:30:54 r, 19.95m,0000000001Hz,0000522188c,0000001.133s, 010.3C,00002191
2015-12-04 01:40:54 r, 19.89m,0000000000Hz,0000490588c,0000001.065s, 009.9C,00002191
2015-12-04 01:50:54 r, 20.05m,0000000001Hz,0000569390c,0000001.236s, 009.9C,00002191
2015-12-04 02:00:54 r, 19.92m,0000000000Hz,0000503878c,0000001.093s, 009.9C,00002191
2015-12-04 02:10:54 r, 19.57m,0000000001Hz,0000365848c,0000000.794s, 009.9C,00002191
2015-12-04 02:20:54 r, 19.28m,0000000002Hz,0000282344c,0000000.613s, 009.9C,00002191
2015-12-04 02:30:55 r, 19.50m,0000000001Hz,0000344868c,0000000.748s, 009.9C,00002191
2015-12-04 02:40:54 r, 19.39m,0000000001Hz,0000311083c,0000000.675s, 009.9C,00002191
2015-12-04 02:50:54 r, 19.37m,0000000002Hz,0000303382c,0000000.658s, 009.9C,00002191
2015-12-04 03:00:54 r, 19.54m,0000000002Hz,0000355062c,0000000.771s, 009.9C,00002191
2015-12-04 03:10:54 r, 19.46m,0000000002Hz,0000331135c,0000000.719s, 009.9C,00002191
2015-12-04 03:20:54 r, 19.74m,0000000001Hz,0000426207c,0000000.925s, 009.9C,00002191
2015-12-04 03:30:56 r, 19.74m,0000000001Hz,0000427257c,0000000.927s, 009.9C,00002191
2015-12-04 03:40:54 r, 19.83m,0000000001Hz,0000464584c,0000001.008s, 009.9C,00002191
2015-12-04 03:50:54 r, 19.75m,0000000001Hz,0000432988c,0000000.940s, 009.9C,00002191
2015-12-04 04:00:56 r, 19.48m,0000000001Hz,0000338887c,0000000.735s, 009.9C,00002191
2015-12-04 04:10:54 r, 19.46m,0000000001Hz,0000332077c,0000000.721s, 009.9C,00002191
2015-12-04 04:20:54 r, 19.67m,0000000001Hz,0000401181c,0000000.871s, 009.9C,00002191
2015-12-04 04:30:54 r, 19.87m,0000000001Hz,0000480022c,0000001.042s, 009.6C,00002191
2015-12-04 04:40:54 r, 20.12m,0000000001Hz,0000605846c,0000001.315s, 009.6C,00002191
2015-12-04 04:50:54 r, 20.18m,0000000001Hz,0000638301c,0000001.385s, 009.6C,00002191
2015-12-04 05:00:56 r, 20.00m,0000000001Hz,0000543729c,0000001.180s, 009.6C,00002191
2015-12-04 05:10:54 r, 20.09m,0000000001Hz,0000586805c,0000001.273s, 009.3C,00002191
2015-12-04 05:20:54 r, 19.96m,0000000001Hz,0000522365c,0000001.134s, 009.3C,00002191
2015-12-04 05:30:54 r, 20.03m,0000000001Hz,0000554185c,0000001.203s, 009.3C,00002191
2015-12-04 05:40:54 r, 19.72m,0000000002Hz,0000418560c,0000000.908s, 009.3C,00002191
2015-12-04 05:50:54 r, 19.36m,0000000002Hz,0000302623c,0000000.657s, 009.3C,00002191
2015-12-04 06:00:55 r, 19.50m,0000000002Hz,0000342559c,0000000.743s, 009.0C,00002191
2015-12-04 06:10:54 r, 19.67m,0000000001Hz,0000401446c,0000000.871s, 009.0C,00002191
2015-12-04 06:20:54 r, 19.59m,0000000001Hz,0000374384c,0000000.812s, 009.0C,00002191
2015-12-04 06:30:55 r, 19.18m,0000000001Hz,0000256353c,0000000.556s, 009.0C,00002191
2015-12-04 06:40:54 r, 18.98m,0000000002Hz,0000214009c,0000000.464s, 009.0C,00002191
2015-12-04 06:50:54 r, 18.45m,0000000004Hz,0000130783c,0000000.284s, 009.0C,00002191
2015-12-04 07:00:54 r, 17.76m,0000000007Hz,0000069219c,0000000.150s, 009.0C,00002191
2015-12-04 07:10:54 r, 16.66m,0000000018Hz,0000025213c,0000000.055s, 009.0C,00002191
2015-12-04 07:20:54 r, 15.07m,0000000078Hz,0000005837c,0000000.013s, 009.0C,00002191
2015-12-04 07:30:54 r, 13.18m,0000000451Hz,0000000000c,0000000.000s, 009.0C,00002191
2015-12-04 07:40:54 r, 11.24m,0000002716Hz,0000000000c,0000000.000s, 009.0C,00002191
2015-12-04 07:50:54 r, 09.55m,0000012830Hz,0000000000c,0000000.000s, 009.0C,00002191
2015-12-04 08:00:54 r, 08.16m,0000045881Hz,0000000000c,0000000.000s, 008.7C,00002191
2015-12-04 08:10:56 r, 07.27m,0000104785Hz,0000000000c,0000000.000s, 008.7C,00002191
2015-12-04 08:20:54 r, 06.53m,0000207763Hz,0000000000c,0000000.000s, 008.7C,00002191
2015-12-04 08:30:54 r, 05.99m,0000341664Hz,0000000000c,0000000.000s, 008.7C,00002191
2015-12-04 08:40:54 r, 00.00m,0000483122Hz,0000000000c,0000000.000s, 009.0C,00002191
2015-12-04 08:50:54 r, 00.00m,0000597349Hz,0000000000c,0000000.000s, 009.6C,00002191
2015-12-04 09:00:54 r, 00.00m,0000597263Hz,0000000000c,0000000.000s, 009.9C,00002191
2015-12-04 09:10:55 r, 00.00m,0000597341Hz,0000000000c,0000000.000s, 010.3C,00002191
2015-12-04 09:20:54 r, 00.00m,0000597238Hz,0000000000c,0000000.000s, 011.2C,00002191
2015-12-04 09:30:54 r, 00.00m,0000597220Hz,0000000000c,0000000.000s, 011.9C,00002191
2015-12-04 09:40:54 r, 00.00m,0000597166Hz,0000000000c,0000000.000s, 012.8C,00002191
2015-12-04 09:50:54 r, 00.00m,0000597016Hz,0000000000c,0000000.000s, 013.5C,00002191
2015-12-04 10:00:54 r, 00.00m,0000596934Hz,0000000000c,0000000.000s, 013.8C,00002191
2015-12-04 10:10:55 r, 00.00m,0000596991Hz,0000000000c,0000000.000s, 014.1C,00002191
2015-12-04 10:20:54 r, 00.00m,0000597006Hz,0000000000c,0000000.000s, 014.8C,00002191
2015-12-04 10:30:54 r, 00.00m,0000596878Hz,0000000000c,0000000.000s, 015.1C,00002191
2015-12-04 10:40:55 r, 00.00m,0000596838Hz,0000000000c,0000000.000s, 016.1C,00002191
2015-12-04 10:50:54 r, 00.00m,0000596690Hz,0000000000c,0000000.000s, 016.4C,00002191
2015-12-04 11:00:54 r, 00.00m,0000596749Hz,0000000000c,0000000.000s, 016.7C,00002191
2015-12-04 11:10:55 r, 00.00m,0000596751Hz,0000000000c,0000000.000s, 017.0C,00002191
2015-12-04 11:20:54 r, 00.00m,0000596767Hz,0000000000c,0000000.000s, 017.4C,00002191
2015-12-04 11:30:54 r, 00.00m,0000596575Hz,0000000000c,0000000.000s, 017.7C,00002191
2015-12-04 11:40:56 r, 00.00m,0000596592Hz,0000000000c,0000000.000s, 018.0C,00002191
2015-12-04 11:50:54 r, 00.00m,0000596646Hz,0000000000c,0000000.000s, 018.3C,00002191
2015-12-04 12:00:54 r, 00.00m,0000596611Hz,0000000000c,0000000.000s, 018.0C,00002191
2015-12-04 12:10:54 r, 00.00m,0000596781Hz,0000000000c,0000000.000s, 016.4C,00002191
2015-12-04 12:20:54 r, 00.00m,0000596817Hz,0000000000c,0000000.000s, 015.4C,00002191
2015-12-04 12:30:54 r, 00.00m,0000596863Hz,0000000000c,0000000.000s, 014.8C,00002191
2015-12-04 12:40:54 r, 00.00m,0000596970Hz,0000000000c,0000000.000s, 014.5C,00002191
2015-12-04 12:50:54 r, 00.00m,0000596946Hz,0000000000c,0000000.000s, 014.1C,00002191
2015-12-04 13:00:54 r, 00.00m,0000597008Hz,0000000000c,0000000.000s, 014.1C,00002191
2015-12-04 13:10:54 r, 00.00m,0000597057Hz,0000000000c,0000000.000s, 014.1C,00002191
2015-12-04 13:20:54 r, 00.00m,0000597044Hz,0000000000c,0000000.000s, 014.1C,00002191
2015-12-04 13:30:54 r, 00.00m,0000597003Hz,0000000000c,0000000.000s, 014.5C,00002191
2015-12-04 13:40:54 r, 00.00m,0000596934Hz,0000000000c,0000000.000s, 014.5C,00002191
2015-12-04 13:50:54 r, 00.00m,0000597000Hz,0000000000c,0000000.000s, 014.8C,00002191
2015-12-04 14:00:54 r, 00.00m,0000596962Hz,0000000000c,0000000.000s, 014.8C,00002191
2015-12-04 14:10:54 r, 00.00m,0000596943Hz,0000000000c,0000000.000s, 014.8C,00002191
2015-12-04 14:20:54 r, 00.00m,0000596897Hz,0000000000c,0000000.000s, 014.8C,00002191
2015-12-04 14:30:54 r, 00.00m,0000597038Hz,0000000000c,0000000.000s, 014.8C,00002191
2015-12-04 14:40:54 r, 00.00m,0000596910Hz,0000000000c,0000000.000s, 014.8C,00002191
2015-12-04 14:50:54 r, 00.00m,0000596941Hz,0000000000c,0000000.000s, 014.8C,00002191
2015-12-04 15:00:54 r, 00.00m,0000596933Hz,0000000000c,0000000.000s, 014.8C,00002191
2015-12-04 15:10:54 r, 00.00m,0000596969Hz,0000000000c,0000000.000s, 014.8C,00002191
2015-12-04 15:20:54 r, 00.00m,0000597113Hz,0000000000c,0000000.000s, 014.8C,00002191
2015-12-04 15:30:54 r, 00.00m,0000596927Hz,0000000000c,0000000.000s, 014.8C,00002191
2015-12-04 15:40:54 r, 00.00m,0000517482Hz,0000000000c,0000000.000s, 015.4C,00002191
2015-12-04 15:50:54 r, 00.00m,0000431009Hz,0000000000c,0000000.000s, 015.7C,00002191
2015-12-04 16:00:54 r, 06.00m,0000337545Hz,0000000000c,0000000.000s, 015.7C,00002191
2015-12-04 16:10:54 r, 06.36m,0000242049Hz,0000000000c,0000000.000s, 015.4C,00002191
2015-12-04 16:20:54 r, 06.88m,0000149579Hz,0000000000c,0000000.000s, 015.1C,00002191
2015-12-04 16:30:54 r, 07.71m,0000069951Hz,0000000000c,0000000.000s, 014.8C,00002191
2015-12-04 16:40:54 r, 08.86m,0000024303Hz,0000000000c,0000000.000s, 014.5C,00002191
2015-12-04 16:50:54 r, 10.31m,0000006347Hz,0000000000c,0000000.000s, 014.1C,00002191
2015-12-04 17:00:54 r, 12.13m,0000001189Hz,0000000000c,0000000.000s, 013.8C,00002191
2015-12-04 17:10:54 r, 14.06m,0000000201Hz,0000000000c,0000000.000s, 014.1C,00002191
2015-12-04 17:20:54 r, 15.92m,0000000036Hz,0000012814c,0000000.028s, 014.1C,00002191
2015-12-04 17:30:54 r, 17.48m,0000000009Hz,0000053904c,0000000.117s, 014.1C,00002191
2015-12-04 17:40:55 r, 18.80m,0000000003Hz,0000180457c,0000000.392s, 014.1C,00002191
2015-12-04 17:50:54 r, 19.78m,0000000001Hz,0000443320c,0000000.962s, 014.1C,00002191
2015-12-04 18:00:54 r, 20.28m,0000000001Hz,0000703396c,0000001.526s, 014.5C,00002191
2015-12-04 18:10:54 r, 20.46m,0000000001Hz,0000824616c,0000001.790s, 014.1C,00002191
2015-12-04 18:20:54 r, 20.51m,0000000000Hz,0000862766c,0000001.872s, 014.1C,00002191
2015-12-04 18:30:54 r, 20.53m,0000000001Hz,0000881091c,0000001.912s, 014.1C,00002191
2015-12-04 18:40:56 r, 20.55m,0000000001Hz,0000895962c,0000001.944s, 014.1C,00002191
2015-12-04 18:50:54 r, 20.56m,0000000000Hz,0000909049c,0000001.973s, 014.1C,00002191
2015-12-04 19:00:54 r, 20.58m,0000000001Hz,0000922393c,0000002.002s, 013.8C,00002191
2015-12-04 19:10:54 r, 20.59m,0000000001Hz,0000933099c,0000002.025s, 013.8C,00002191
2015-12-04 19:20:54 r, 20.61m,0000000000Hz,0000945581c,0000002.052s, 013.8C,00002191
2015-12-04 19:30:54 r, 20.62m,0000000001Hz,0000950815c,0000002.063s, 013.8C,00002191
2015-12-04 19:40:54 r, 20.64m,0000000000Hz,0000967061c,0000002.099s, 013.8C,00002191
2015-12-04 19:50:54 r, 20.62m,0000000001Hz,0000954467c,0000002.071s, 013.8C,00002191
2015-12-04 20:00:54 r, 20.62m,0000000000Hz,0000955593c,0000002.074s, 013.5C,00002191
2015-12-04 20:10:54 r, 20.63m,0000000000Hz,0000961987c,0000002.088s, 013.5C,00002191
2015-12-04 20:20:54 r, 20.64m,0000000001Hz,0000970592c,0000002.106s, 013.5C,00002191
2015-12-04 20:30:54 r, 20.64m,0000000001Hz,0000974349c,0000002.114s, 013.5C,00002191
2015-12-04 20:40:56 r, 20.65m,0000000000Hz,0000975749c,0000002.118s, 013.5C,00002191
2015-12-04 20:50:54 r, 20.65m,0000000001Hz,0000978254c,0000002.123s, 013.5C,00002191
2015-12-04 21:00:54 r, 20.65m,0000000000Hz,0000979192c,0000002.125s, 013.5C,00002191
2015-12-04 21:10:56 r, 20.65m,0000000000Hz,0000975374c,0000002.117s, 013.5C,00002191
2015-12-04 21:20:54 r, 20.65m,0000000001Hz,0000986825c,0000002.142s, 013.5C,00002191
2015-12-04 21:30:54 r, 20.65m,0000000001Hz,0000975067c,0000002.116s, 013.5C,00002191
2015-12-04 21:40:55 r, 20.65m,0000000001Hz,0000978780c,0000002.124s, 013.5C,00002191
2015-12-04 21:50:54 r, 20.64m,0000000000Hz,0000973435c,0000002.112s, 013.5C,00002191
2015-12-04 22:00:54 r, 20.63m,0000000001Hz,0000962450c,0000002.089s, 013.2C,00002191
2015-12-04 22:10:54 r, 20.52m,0000000000Hz,0000873725c,0000001.896s, 013.2C,00002191
2015-12-04 22:20:54 r, 20.57m,0000000001Hz,0000910001c,0000001.975s, 013.2C,00002191
2015-12-04 22:30:54 r, 20.29m,0000000001Hz,0000705171c,0000001.530s, 013.2C,00002191
2015-12-04 22:40:55 r, 20.17m,0000000001Hz,0000635502c,0000001.379s, 013.2C,00002191
2015-12-04 22:50:54 r, 19.42m,0000000001Hz,0000317779c,0000000.690s, 013.2C,00002191
2015-12-04 23:00:54 r, 20.00m,0000000000Hz,0000544347c,0000001.181s, 013.5C,00002191
2015-12-04 23:10:54 r, 19.35m,0000000001Hz,0000299499c,0000000.650s, 013.5C,00002191
2015-12-04 23:20:54 r, 19.78m,0000000001Hz,0000445586c,0000000.967s, 013.5C,00002191
2015-12-04 23:30:54 r, 20.42m,0000000000Hz,0000798259c,0000001.732s, 013.5C,00002191
2015-12-04 23:40:54 r, 20.45m,0000000000Hz,0000811395c,0000001.761s, 013.5C,00002191
2015-12-04 23:50:56 r, 20.24m,0000000001Hz,0000679671c,0000001.475s, 013.5C,00002191
